Change the Weather History Date:

Tuesday, December 16, 2014

  Actual Average Record
Temperature  
Mean Temperature 38 °F 34 °F  
Max Temperature 44 °F 42 °F 67 °F (1929)
Min Temperature 32 °F 25 °F 1 °F (1951)
Degree Days  
Heating Degree Days 27 31  
Month to date heating degree days 394 464  
Since 1 July heating degree days 1353 1534  
Cooling Degree Days 0 0  
Month to date cooling degree days 0 0  
Year to date cooling degree days 958 895  
Moisture  
Dew Point 35 °F    
Average Humidity 86    
Maximum Humidity 89    
Minimum Humidity 82    
Precipitation  
Precipitation 0.09 in 0.08 in 1.04 in (1970)
Month to date precipitation 2.03 1.57  
Year to date precipitation 34.42 37.56  
Sea Level Pressure  
Sea Level Pressure 29.93 in    
Wind  
Wind Speed 2 mph (North)    
Max Wind Speed 10 mph    
Max Gust Speed 13 mph    
Visibility 2 miles    
Events Fog , Rain    
T = Trace of Precipitation, MM = Missing Value Source: NWS Daily Summary

Daily Weather History Graph

Daily Weather History Graph

Search for Another Location

Airport or City:

Trip Planner

Search our weather history database for the weather conditions in past years. The results will help you decide how hot, cold, wet, or windy it might be!

Date:

Astronomy

Dec. 16, 2014 Rise Set
Actual Time 7:25 AM EST 4:49 PM EST
Civil Twilight 6:55 AM EST 5:19 PM EST
Nautical Twilight 6:21 AM EST 5:53 PM EST
Astronomical Twilight 5:48 AM EST 6:26 PM EST
Moon 1:40 AM EST (12/16) 1:17 PM EST (12/16)
Length of Visible Light 10h 24m
Length of Day
9h 24m
Waning Crescent, 30% of the Moon is Illuminated
Dec 16
Waning Crescent
Dec 21
New
Dec 28
First Quarter
Jan 4
Full
Jan 13
Last Quarter

Hourly Weather History & Observations

Time (EST) Temp. Windchill Dew Point Humidity Pressure Visibility Wind Dir Wind Speed Gust Speed Precip Events Conditions
12:53 AM 37.0 °F 34.5 °F 33.1 °F 86% 30.01 in 5.0 mi North 3.5 mph - N/A   Clear
1:53 AM 35.1 °F 32.2 °F 30.9 °F 85% 30.01 in 5.0 mi NNE 3.5 mph - N/A   Clear
2:53 AM 35.1 °F 32.2 °F 30.9 °F 85% 29.99 in 5.0 mi North 3.5 mph - N/A   Clear
3:53 AM 34.0 °F 29.8 °F 30.0 °F 85% 29.97 in 4.0 mi NE 4.6 mph - N/A   Clear
4:53 AM 33.1 °F 28.7 °F 28.9 °F 85% 29.99 in 3.0 mi NNE 4.6 mph - N/A   Clear
5:53 AM 33.1 °F 30.0 °F 28.9 °F 85% 29.98 in 3.0 mi North 3.5 mph - N/A   Clear
6:08 AM 32.0 °F - 28.9 °F 88% 29.96 in 2.5 mi Calm Calm - N/A   Partly Cloudy
6:22 AM 32.0 °F - 28.9 °F 88% 29.96 in 3.0 mi Calm Calm - N/A   Mostly Cloudy
6:37 AM 33.1 °F 27.7 °F 28.9 °F 85% 29.96 in 3.0 mi NW 5.8 mph - N/A   Overcast
6:53 AM 33.1 °F 30.0 °F 30.0 °F 89% 29.97 in 2.5 mi NNW 3.5 mph - N/A   Overcast
7:03 AM 34.0 °F 29.8 °F 30.0 °F 85% 29.95 in 3.0 mi North 4.6 mph - N/A   Overcast
7:32 AM 35.1 °F 32.2 °F 30.9 °F 85% 29.96 in 2.0 mi North 3.5 mph - N/A   Overcast
7:53 AM 35.1 °F 31.0 °F 32.0 °F 89% 29.98 in 1.8 mi NNW 4.6 mph - N/A   Overcast
8:07 AM 36.0 °F 33.3 °F 32.0 °F 86% 29.96 in 2.0 mi North 3.5 mph - N/A   Overcast
8:21 AM 36.0 °F 33.3 °F 32.0 °F 86% 29.96 in 1.8 mi NNE 3.5 mph - N/A   Overcast
8:33 AM 37.0 °F 34.5 °F 33.1 °F 86% 29.96 in 2.0 mi North 3.5 mph - N/A   Overcast
8:53 AM 37.0 °F 34.5 °F 33.1 °F 86% 29.99 in 2.0 mi NW 3.5 mph - N/A   Overcast
9:12 AM 37.9 °F 35.5 °F 34.0 °F 86% 29.96 in 1.8 mi NNE 3.5 mph - N/A   Overcast
9:53 AM 37.9 °F - 34.0 °F 86% 29.98 in 1.2 mi Calm Calm - 0.02 in Rain Rain
10:16 AM 39.0 °F 34.0 °F 35.1 °F 86% 29.99 in 2.0 mi West 6.9 mph - 0.00 in   Overcast
10:28 AM 39.0 °F - 35.1 °F 86% 29.97 in 1.5 mi Calm Calm - 0.01 in Rain Light Rain
10:53 AM 39.0 °F 36.8 °F 36.0 °F 89% 29.95 in 1.2 mi SE 3.5 mph - 0.04 in Rain Light Rain
11:26 AM 39.0 °F - 36.0 °F 89% 29.94 in 2.0 mi Calm Calm - 0.00 in Rain Light Rain
11:40 AM 39.9 °F - 36.0 °F 86% 29.93 in 1.5 mi Calm Calm - 0.01 in Rain Light Rain
11:53 AM 39.9 °F - 36.0 °F 86% 29.93 in 2.0 mi Calm Calm - 0.02 in Rain Light Rain
12:01 PM 39.9 °F 37.8 °F 36.0 °F 86% 29.90 in 1.8 mi NE 3.5 mph - 0.00 in Rain Light Rain
12:51 PM 41.0 °F - 37.4 °F 87% 29.88 in 2.0 mi Calm Calm - 0.01 in   Overcast
12:53 PM 41.0 °F - 37.9 °F 89% 29.89 in 2.0 mi Calm Calm - 0.01 in   Overcast
1:50 PM 42.8 °F 41.1 °F 37.4 °F 81% 29.85 in 3.0 mi North 3.5 mph - N/A   Overcast
1:53 PM 42.1 °F 40.2 °F 37.9 °F 85% 29.86 in 3.0 mi North 3.5 mph - N/A   Overcast
2:20 PM 43.0 °F 41.3 °F 39.0 °F 86% 29.85 in 6.0 mi East 3.5 mph - N/A   Overcast
2:53 PM 43.0 °F 39.5 °F 39.0 °F 86% 29.86 in 5.0 mi East 5.8 mph - N/A   Overcast
3:53 PM 44.1 °F - 39.0 °F 82% 29.86 in 5.0 mi Calm Calm - N/A   Haze
4:53 PM 43.0 °F - 39.0 °F 86% 29.87 in 5.0 mi Calm Calm - N/A   Overcast
5:53 PM 43.0 °F 41.3 °F 39.0 °F 86% 29.89 in 4.0 mi NNW 3.5 mph - 0.00 in Rain Light Rain
6:21 PM 43.0 °F - 39.0 °F 86% 29.88 in 3.0 mi Calm Calm - 0.00 in   Overcast
6:53 PM 43.0 °F - 39.0 °F 86% 29.90 in 3.0 mi Calm Calm - 0.00 in   Overcast
7:08 PM 43.0 °F - 39.0 °F 86% 29.89 in 2.5 mi Calm Calm - N/A   Overcast
7:33 PM 43.0 °F 41.3 °F 39.0 °F 86% 29.89 in 1.8 mi WNW 3.5 mph - N/A   Overcast
7:53 PM 42.1 °F - 39.0 °F 89% 29.90 in 0.8 mi Calm Calm - N/A   Mist
8:29 PM 42.1 °F - 39.0 °F 89% 29.89 in 1.5 mi Calm Calm - N/A   Overcast
8:46 PM 42.1 °F - 39.0 °F 89% 29.89 in 2.0 mi Calm Calm - N/A   Overcast
8:53 PM 42.1 °F - 37.9 °F 85% 29.91 in 1.2 mi Calm Calm - N/A   Overcast
9:10 PM 41.0 °F - 37.9 °F 89% 29.90 in 0.8 mi Calm Calm - N/A   Overcast
9:53 PM 39.0 °F 36.8 °F 36.0 °F 89% 29.91 in 0.2 mi WSW 3.5 mph - N/A Fog Fog
10:15 PM 39.9 °F - 37.9 °F 93% 29.90 in 0.2 mi Calm Calm - N/A Fog Fog
10:53 PM 41.0 °F - 37.9 °F 89% 29.92 in 0.2 mi Calm Calm - N/A Fog Fog
11:53 PM 39.9 °F - 37.0 °F 89% 29.91 in 0.2 mi Calm Calm - N/A Fog Fog